DW9605 Weather Reports


time (UTC)temp
C
wind
direction
speed
KPH
gust
KPH
rain 1hr
cm
rain 24hr
cm
rain mn
cm
humidity
%
barometer
mb
20260503030050 16 360 20.9 53.1 0.00 0.00 0.00 41 1013.0
20260503024550 16 360 0.0 3.2 0.00 0.00 0.00 35 1012.4
20260503023049 17 360 0.0 0.0 0.00 0.00 0.00 35 1012.2
20260503021554 17 360 0.0 0.0 0.00 0.00 0.00 35 1012.1
20260503020054 17 360 0.0 0.0 0.00 0.00 0.00 35 1012.0
20260503014619 17 360 0.0 0.0 0.00 0.00 0.00 35 1012.0
20260503013047 17 360 0.0 3.2 0.00 0.00 0.00 35 1012.1
20260503011555 18 360 1.6 6.4 0.00 0.00 0.00 34 1012.2
20260503010052 18 360 4.8 8.0 0.00 0.00 0.00 33 1012.3
20260503004557 19 360 4.8 11.3 0.00 0.00 0.00 33 1012.3
20260503003043 18 360 1.6 6.4 0.00 0.00 0.00 34 1012.4
20260503001541 18 360 8.0 12.9 0.00 0.00 0.00 34 1012.6
20260503000042 18 360 4.8 9.7 0.00 0.00 0.00 33 1012.6
20260502234544 18 360 4.8 9.7 0.00 0.00 0.00 33 1012.8
20260502233044 19 360 1.6 11.3 0.00 0.00 0.00 33 1012.9
20260502231539 18 360 3.2 11.3 0.00 0.00 0.00 34 1013.0
20260502230034 19 360 3.2 9.7 0.00 0.00 0.00 33 1013.2
20260502224535 19 360 3.2 16.1 0.00 0.00 0.00 34 1013.5
20260502223038 19 360 11.3 17.7 0.00 0.00 0.00 33 1013.4
20260502221532 19 360 4.8 12.9 0.00 0.00 0.00 34 1013.7
20260502220030 18 360 4.8 8.0 0.00 0.00 0.00 34 1014.0
20260502214532 18 360 1.6 9.7 0.00 0.00 0.00 35 1014.1
20260502213030 18 360 3.2 11.3 0.00 0.00 0.00 35 1014.4
20260502211538 18 360 4.8 16.1 0.00 0.00 0.00 37 1014.6
20260502210034 17 360 4.8 19.3 0.00 0.00 0.00 38 1014.8
20260502204530 18 360 4.8 14.5 0.00 0.00 0.00 36 1014.8
20260502203026 18 360 4.8 17.7 0.00 0.00 0.00 35 1014.9
20260502201527 18 360 3.2 11.3 0.00 0.00 0.00 36 1015.1
20260502200027 18 360 3.2 8.0 0.00 0.00 0.00 36 1015.3
20260502194527 17 360 4.8 14.5 0.00 0.00 0.00 37 1015.4
20260502193026 17 360 8.0 12.9 0.00 0.00 0.00 37 1015.5
20260502191526 18 360 9.7 14.5 0.00 0.00 0.00 35 1015.8
20260502190032 17 360 1.6 9.7 0.00 0.00 0.00 36 1015.9
20260502184543 17 360 4.8 19.3 0.00 0.00 0.00 37 1016.0
20260502183038 18 360 6.4 19.3 0.00 0.00 0.00 36 1016.1
20260502181534 18 360 6.4 17.7 0.00 0.00 0.00 35 1016.1
20260502163017 16 360 8.0 14.5 0.00 0.00 0.00 40 1016.8
20260502161508 15 360 4.8 11.3 0.00 0.00 0.00 41 1016.9
20260502151603 13 360 4.8 14.5 0.00 0.00 0.00 48 1017.0
20260502123024 8 360 11.3 19.3 0.00 0.00 0.00 55 1015.9
20260502121520 7 360 8.0 11.3 0.00 0.00 0.00 57 1016.0
20260502114516 6 360 9.7 16.1 0.00 0.00 0.00 62 1015.7
20260502113014 5 360 9.7 17.7 0.00 0.00 0.00 53 1015.7
20260502111510 5 360 1.6 6.4 0.00 0.00 0.00 54 1015.3
20260502110009 6 360 1.6 6.4 0.00 0.00 0.00 52 1015.0
20260502104506 6 360 1.6 6.4 0.00 0.00 0.00 51 1014.8
20260502103005 6 360 1.6 8.0 0.00 0.00 0.00 49 1014.8
20260502101510 5 360 4.8 6.4 0.00 0.00 0.00 49 1014.6
20260502090112 7 360 4.8 12.9 0.00 0.00 0.00 44 1013.6
20260502080105 6 360 4.8 9.7 0.00 0.00 0.00 44 1013.5
20260502070057 6 360 1.6 8.0 0.00 0.00 0.00 42 1013.4
20260502064548 7 360 3.2 6.4 0.00 0.00 0.00 40 1013.3
20260502063048 8 360 4.8 6.4 0.00 0.00 0.00 40 1013.4
20260502061540 8 360 4.8 6.4 0.00 0.00 0.00 38 1013.4
20260502060041 9 360 3.2 6.4 0.00 0.00 0.00 37 1013.3
20260502054543 9 360 4.8 6.4 0.00 0.00 0.00 36 1013.2
20260502053043 10 360 4.8 8.0 0.00 0.00 0.00 35 1013.2
20260502051600 8 360 4.8 11.3 0.00 0.00 0.00 37 1013.1
20260502050040 10 360 4.8 8.0 0.00 0.00 0.00 33 1013.0
20260502044539 11 360 3.2 9.7 0.00 0.00 0.00 30 1012.9
20260502043039 12 360 4.8 11.3 0.00 0.00 0.00 29 1012.9
20260502041540 12 360 6.4 11.3 0.00 0.00 0.00 28 1012.8
20260502040051 13 360 8.0 12.9 0.00 0.00 0.00 27 1012.8
20260502034538 13 360 8.0 14.5 0.00 0.00 0.00 26 1012.6
20260502033041 14 360 6.4 11.3 0.00 0.00 0.00 24 1012.6
20260502031540 15 360 6.4 9.7 0.00 0.00 0.00 22 1012.4